Zurück zum Katalog

FENGYUN 1C DEB

AktivSSO
NORAD 35155·DEBRIS·🇨🇳 China

Gestartet May 10, 1999 von Taiyuan Satellite Launch Center

Loading…

Nächste Überflüge (nächste 24 Stunden)

TLE

AktuellSource: Space-Track

Epoche: Sep 14, 2026, 18:38 UTC

1 35155U 99025DMK 26257.77678356  .00000792  00000-0  39164-3 0  9999
2 35155  98.4981 263.3813 0025014 355.5468   4.5482 14.19903190766306

Verfolge FENGYUN 1C DEB in Echtzeit mit AllMySat

Download on the App Store